Location: Heidgraben
(53.7081°N, 9.6576°E)
Time: 23:11:34
(UTC+00:00)

Cosmos 2333 Rocket - Pass Details

Date: 25 October 2020
Orbit: 841 x 861 km, 70.8° (Epoch: 28 November)

Event Time Altitude Azimuth Distance (km) Brightness Sun altitude
Exits shadow 01:20:53 16° 4° (N) 2,096 4.6 -40.6°
Drops below altitude 10° 01:22:44 10° 21° (NNE) 2,487 5.2 -40.4°
Sets 01:25:55 0° 39° (NE) 3,421 6.2 -40.1°
